Terminal Aerodrome Forecast
Issued by NWS

Home | Current Version | Previous Version | Text Only | Print | Product List | Glossary On
Versions: 1 2 3 4 5 6 7 8 9 10 11 12 13 14 15 16 17 18 19
000
FTUS43 KOAX 230410 AAA
TAFCDR
TAF AMD
KCDR 230410Z 2304/2324 03009KT P6SM OVC150
     FM230800 03012KT P6SM VCSH OVC012
     FM231800 03007KT 5SM -SHRA OVC012=

USA.gov is the U.S. government's official web portal to all federal, state and local government web resources and services.